This demonstration page uses our WeatherBlox Daily Observations layout. Learn more.

Left ArrowRight Arrow

39.92423, -83.80882

Hourly Observations for August 13, 2016

Temp ( °F °C ) Dew Point ( °F °C ) Humidity (%) Winds ( mph kmh ) Pressure ( in mb ) Visibility ( mi km ) Precip ( " mm )
12:56 am 00:56 Cloudy 78 25.6 73 22.8 85 85 S 5 7 29.89 1012 10 16.0934 N/A
1:56 am 01:56 Clear 77 25 73 22.8 88 88 S 6 9 29.89 1012 10 16.0934 N/A
2:56 am 02:56 Clear 76 24.4 73 22.8 91 91 S 6 9 29.87 1012 10 16.0934 N/A
3:56 am 03:56 Clear 76 24.4 73 22.8 91 91 S 6 9 29.88 1012 10 16.0934 N/A
4:56 am 04:56 Partly Cloudy 76 24.4 73 22.8 91 91 S 7 11 N/A 10 16.0934 N/A
5:56 am 05:56 Cloudy 77 25 73 22.8 88 88 S 6 9 29.87 1012 10 16.0934 N/A
6:56 am 06:56 Mostly Sunny 75 23.9 73 22.8 94 94 S 7 11 N/A 10 16.0934 N/A
7:56 am 07:56 Partly Cloudy 78 25.6 74 23.3 87 87 S 6 9 29.89 1012 10 16.0934 N/A
8:56 am 08:56 Mostly Sunny 80 26.7 74 23.3 82 82 SW 12 19 29.89 1012 10 16.0934 N/A
9:56 am 09:56 Cloudy 82 27.8 74 23.3 77 77 SW 15 24 N/A 10 16.0934 N/A
10:12 am 10:12 Cloudy 81 27 73 23 79 79 SSW 12 19 29.85 1011 10 16.0934 N/A
10:56 am 10:56 Cloudy 80 26.7 74 23.3 82 82 SW 10 17 29.9 1012 10 16.0934 N/A
11:29 am 11:29 Cloudy 81 27 73 23 79 79 SSW 10 17 29.88 1012 10 16.0934 N/A
11:56 am 11:56 Cloudy 80 26.7 74 23.3 82 82 undefined N/A 29.9 1013 10 16.0934 N/A
12:09 pm 12:09 Cloudy 81 27 73 23 79 79 SSW 8 13 29.88 1012 10 16.0934 N/A
12:45 pm 12:45 Cloudy 82 28 75 24 79 79 SSW 14 22 29.85 1011 10 16.0934 N/A
12:56 pm 12:56 Cloudy 82 27.8 75 23.9 79 79 SSW 12 19 29.89 1012 10 16.0934 N/A
1:47 pm 13:47 Cloudy 82 28 73 23 74 74 SSW 10 17 29.85 1011 10 16.0934 N/A
1:56 pm 13:56 Cloudy with Light Rain 81 27.2 73 22.8 77 77 S 14 22 29.88 1012 10 16.0934 N/A
2:13 pm 14:13 Cloudy 82 28 75 24 79 79 SSW 14 22 29.85 1011 10 16.0934 N/A
2:46 pm 14:46 Cloudy with Thunderstorms 82 28 73 23 74 74 WSW 14 22 29.88 1012 10 16.0934 N/A
2:56 pm 14:56 Cloudy with Thunderstorms 77 25 73 22.8 88 88 WSW 10 17 29.91 1013 10 16.0934 N/A
3:08 pm 15:08 Cloudy with Heavy Thunderstorms 73 23 73 23 100 100 W 10 17 29.91 1013 2 3.21868 0.06 1.524
3:13 pm 15:13 Cloudy with Thunderstorms 73 23 72 22 94 94 W 12 19 29.91 1013 3 4.82802 0.09 2.286
3:25 pm 15:25 Cloudy with Light Thunderstorms 75 24 73 23 94 94 SW 13 20 29.88 1012 10 16.0934 0.13 3.302
3:56 pm 15:56 Cloudy with Nearby Thunderstorms 78 25.6 75 23.9 90 90 WSW 12 19 29.89 1012 10 16.0934 0.17 4.318
4:04 pm 16:04 Mostly Cloudy 79 26 75 24 89 89 WSW 12 19 29.85 1011 10 16.0934 N/A
4:56 pm 16:56 Cloudy 81 27.2 75 23.9 82 82 SW 15 24 29.88 1012 10 16.0934 N/A
5:06 pm 17:06 Cloudy 81 27 73 23 79 79 WSW 18 30 29.85 1011 10 16.0934 N/A
5:56 pm 17:56 Mostly Cloudy 80 26.7 74 23.3 82 82 WSW 17 28 N/A 10 16.0934 N/A
6:56 pm 18:56 Mostly Cloudy 80 26.7 73 22.8 79 79 WSW 15 24 29.9 1013 10 16.0934 N/A
7:46 pm 19:46 Cloudy with Nearby Thunderstorms 77 25 73 23 89 89 SW 15 24 29.88 1012 10 16.0934 N/A
7:56 pm 19:56 Mostly Cloudy with Light Rain 76 24.4 74 23.3 94 94 SW 13 20 29.92 1013 10 16.0934 N/A
8:05 pm 20:05 Mostly Cloudy 75 24 73 23 94 94 undefined N/A N/A 10 16.0934 N/A
8:56 pm 20:56 Partly Cloudy 74 23.3 72 22.2 94 94 undefined N/A N/A 10 16.0934 0.01 0.254
9:14 pm 21:14 Mostly Cloudy with Light Rain 73 23 72 22 94 94 SW 8 13 29.94 1014 10 16.0934 N/A
9:25 pm 21:25 Partly Cloudy 73 23 72 22 94 94 SW 8 13 29.94 1014 10 16.0934 N/A
9:56 pm 21:56 Partly Cloudy 74 23.3 73 22.8 97 97 undefined N/A 29.94 1014 10 16.0934 N/A
10:09 pm 22:09 Mostly Cloudy 73 23 73 23 100 100 SW 7 11 29.94 1014 10 16.0934 N/A
10:56 pm 22:56 Mostly Cloudy 74 23.3 73 22.8 97 97 SW 7 11 29.95 1014 10 16.0934 N/A
11:56 pm 23:56 Mostly Cloudy 74 23.3 72 22.2 94 94 WSW 9 15 29.98 1015 10 16.0934 0.01 0.254

Powered by AerisWeather